Location: Splawn
(30.9202°N, 96.9858°W)
Time: 17:36:39
(UTC+00:00)

Vanguard 2 - Visible Passes

Search period start: 19 February 2020 00:00
Search period end: 29 February 2020 00:00
Orbit: 552 x 2939 km, 32.9° (Epoch: 19 February)

Date Brightness Start Highest point End Pass type
(mag) Time Alt. Az. Time Alt. Az. Time Alt. Az.
19 Feb 11.2 07:54:04 20° E 07:54:04 20° E 07:58:21 10° ENE visible
19 Feb 9.5 09:55:28 82° SSW 09:55:59 83° SSE 10:13:03 10° ENE visible
19 Feb 10.3 11:56:52 19° W 12:08:55 83° N 12:27:14 10° E visible
20 Feb 10.9 08:10:52 27° E 08:10:52 27° E 08:16:58 10° ENE visible
20 Feb 9.5 10:12:15 73° WSW 10:14:10 90° N 10:31:27 10° E visible
20 Feb 10.3 12:13:39 13° W 12:27:19 85° N 12:45:37 10° E visible
21 Feb 10.6 08:27:38 34° E 08:27:38 34° E 08:35:24 10° ENE visible
21 Feb 9.5 10:29:02 60° W 10:32:26 85° N 10:49:54 10° E visible
21 Feb 10.4 12:30:52 10° W 12:45:42 89° NNE 13:03:57 10° ESE visible
22 Feb 10.3 08:44:24 42° E 08:44:24 42° E 08:53:48 10° ENE visible
22 Feb 9.7 10:45:48 48° W 10:50:45 83° N 11:08:23 10° E visible
23 Feb 10.0 09:01:09 52° E 09:01:09 52° E 09:12:11 10° ENE visible
23 Feb 9.9 11:02:33 38° W 11:09:05 83° N 11:26:52 10° E visible
24 Feb 9.7 09:17:55 63° ENE 09:17:55 63° ENE 09:30:37 10° E visible
24 Feb 10.0 11:19:19 30° W 11:27:25 86° N 11:45:18 10° E visible
25 Feb 11.4 07:33:17 14° ENE 07:33:17 14° ENE 07:34:46 10° ENE visible
25 Feb 9.5 09:34:41 75° NE 09:34:41 75° NE 09:49:05 10° E visible
25 Feb 10.0 11:36:04 23° WNW 11:45:42 89° SSW 12:03:39 10° ESE visible
26 Feb 11.1 07:50:04 19° ENE 07:50:04 19° ENE 07:53:07 10° ENE visible
26 Feb 9.3 09:51:28 81° NNW 09:51:40 81° N 10:07:35 10° E visible
26 Feb 10.1 11:52:52 17° WNW 12:03:55 81° SSW 12:21:52 10° ESE visible
27 Feb 10.9 08:06:52 24° ENE 08:06:52 24° ENE 08:11:28 10° ENE visible
27 Feb 9.3 10:08:16 72° WNW 10:09:55 83° N 10:26:05 10° E visible
27 Feb 10.2 12:09:40 12° WNW 12:22:04 72° SSW 12:39:51 10° ESE visible
28 Feb 10.6 08:23:41 30° E 08:23:41 30° E 08:29:52 10° E visible
28 Feb 9.3 10:25:06 59° WNW 10:28:09 88° NNE 10:44:32 10° ESE visible
28 Feb 10.3 12:27:15 10° WNW 12:40:09 62° SSW 12:57:37 10° SE visible
